BWA242 TTPP-TDPD

Flight info

Callsign BWA242
Flight time 1h 9m
Altitude 17000
Route DCT POS DCT OLASA DCT SV DCT BNE DCT FOF DCT DOM DCT
Aircraft AT76/M-SDFGIRY/S

Departure

Time 2026-04-26 16:04
Airport Piarco International Airport (TTPP)

Arrival

Time 2026-04-26 17:13
Airport Douglas-Charles Airport (TDPD)
Time Latitude Longitude Altitude Speed Heading
2026-04-26 15:52 10.60139 -61.33864 195 ft 0 kts 69°
2026-04-26 15:56 10.60141 -61.33858 196 ft 3 kts 73°
2026-04-26 15:56 10.60134 -61.33830 202 ft 6 kts 115°
2026-04-26 15:57 10.60119 -61.33799 198 ft 4 kts 115°
2026-04-26 15:57 10.60111 -61.33783 207 ft 1 kts 121°
2026-04-26 15:57 10.60103 -61.33770 196 ft 4 kts 122°
2026-04-26 15:57 10.60094 -61.33755 198 ft 4 kts 122°
2026-04-26 15:58 10.60032 -61.33739 196 ft 12 kts 169°
2026-04-26 15:58 10.59937 -61.33737 197 ft 12 kts 180°
2026-04-26 15:58 10.59874 -61.33736 195 ft 6 kts 179°
2026-04-26 15:58 10.59840 -61.33735 195 ft 4 kts 180°
2026-04-26 15:59 10.59819 -61.33736 206 ft 2 kts 182°
2026-04-26 15:59 10.59802 -61.33737 204 ft 3 kts 184°
2026-04-26 15:59 10.59784 -61.33738 195 ft 2 kts 181°
2026-04-26 15:59 10.59779 -61.33738 195 ft 0 kts 177°
2026-04-26 16:00 10.59773 -61.33738 195 ft 1 kts 177°
2026-04-26 16:00 10.59709 -61.33749 197 ft 10 kts 219°
2026-04-26 16:00 10.59702 -61.33793 198 ft 9 kts 275°
2026-04-26 16:00 10.59707 -61.33876 194 ft 14 kts 272°
2026-04-26 16:01 10.59707 -61.33985 194 ft 17 kts 268°
2026-04-26 16:01 10.59701 -61.34109 200 ft 18 kts 267°
2026-04-26 16:01 10.59706 -61.34241 201 ft 19 kts 273°
2026-04-26 16:01 10.59708 -61.34379 194 ft 20 kts 270°
2026-04-26 16:02 10.59690 -61.34509 201 ft 17 kts 231°
2026-04-26 16:02 10.59657 -61.34526 197 ft 4 kts 189°
2026-04-26 16:02 10.59642 -61.34528 200 ft 0 kts 186°
2026-04-26 16:02 10.59638 -61.34529 200 ft 1 kts 183°
2026-04-26 16:03 10.59627 -61.34527 191 ft 1 kts 175°
2026-04-26 16:03 10.59618 -61.34526 199 ft 2 kts 175°
2026-04-26 16:03 10.59575 -61.34525 189 ft 11 kts 178°
2026-04-26 16:03 10.59538 -61.34487 192 ft 15 kts 97°
2026-04-26 16:04 10.59537 -61.34123 188 ft 86 kts 90°
2026-04-26 16:04 10.59530 -61.33353 502 ft 112 kts 93°
2026-04-26 16:04 10.59548 -61.32565 1189 ft 112 kts 91°
2026-04-26 16:04 10.59568 -61.31649 1550 ft 147 kts 91°
2026-04-26 16:05 10.59601 -61.30560 2061 ft 167 kts 84°
2026-04-26 16:05 10.59968 -61.29365 2460 ft 183 kts 84°
2026-04-26 16:05 10.59868 -61.28058 2894 ft 192 kts 100°
2026-04-26 16:05 10.59702 -61.26668 3352 ft 204 kts 97°
2026-04-26 16:06 10.60001 -61.25238 3790 ft 220 kts 62°
2026-04-26 16:06 10.61231 -61.24237 4226 ft 240 kts 25°
2026-04-26 16:06 10.62916 -61.24089 4701 ft 249 kts 355°
2026-04-26 16:06 10.64620 -61.24380 5147 ft 254 kts 351°
2026-04-26 16:07 10.66393 -61.24737 5615 ft 258 kts 351°
2026-04-26 16:07 10.68145 -61.25082 6078 ft 261 kts 353°
2026-04-26 16:07 10.69943 -61.25388 6518 ft 262 kts 353°
2026-04-26 16:07 10.71753 -61.25656 7023 ft 265 kts 354°
2026-04-26 16:08 10.73583 -61.25927 7450 ft 267 kts 354°
2026-04-26 16:08 10.74822 -61.26116 7762 ft 267 kts 354°
2026-04-26 16:08 10.77272 -61.26485 8371 ft 270 kts 354°
2026-04-26 16:08 10.79142 -61.26761 8834 ft 272 kts 354°
2026-04-26 16:09 10.81020 -61.27036 9293 ft 273 kts 354°
2026-04-26 16:09 10.82908 -61.27312 9788 ft 274 kts 354°
2026-04-26 16:09 10.84800 -61.27591 10215 ft 276 kts 354°
2026-04-26 16:09 10.86703 -61.27879 10632 ft 278 kts 354°
2026-04-26 16:10 10.88625 -61.28173 11026 ft 280 kts 354°
2026-04-26 16:10 10.90560 -61.28466 11428 ft 282 kts 354°
2026-04-26 16:10 10.92503 -61.28760 11838 ft 283 kts 354°
2026-04-26 16:10 10.94455 -61.29054 12253 ft 284 kts 354°
2026-04-26 16:11 10.96413 -61.29350 12674 ft 285 kts 354°
2026-04-26 16:11 10.98349 -61.29643 13093 ft 285 kts 354°
2026-04-26 16:11 11.00307 -61.29939 13523 ft 285 kts 353°
2026-04-26 16:11 11.02267 -61.30235 13941 ft 284 kts 353°
2026-04-26 16:12 11.04220 -61.30530 14324 ft 284 kts 353°
2026-04-26 16:12 11.06180 -61.30825 14669 ft 286 kts 353°
2026-04-26 16:12 11.10133 -61.31421 15366 ft 287 kts 353°
2026-04-26 16:13 11.12111 -61.31720 15718 ft 288 kts 353°
2026-04-26 16:13 11.14097 -61.32021 16080 ft 288 kts 352°
2026-04-26 16:13 11.16080 -61.32322 16443 ft 288 kts 352°
2026-04-26 16:13 11.18064 -61.32622 16798 ft 289 kts 352°
2026-04-26 16:14 11.20087 -61.32928 16889 ft 299 kts 352°
2026-04-26 16:14 11.22173 -61.33245 16934 ft 308 kts 352°
2026-04-26 16:14 11.26500 -61.33901 16963 ft 320 kts 352°
2026-04-26 16:15 11.28718 -61.34237 16967 ft 324 kts 352°
2026-04-26 16:15 11.30964 -61.34577 16972 ft 327 kts 352°
2026-04-26 16:15 11.33225 -61.34920 16970 ft 330 kts 352°
2026-04-26 16:16 11.37783 -61.35610 16975 ft 332 kts 352°
2026-04-26 16:16 11.40073 -61.35957 16975 ft 333 kts 352°
2026-04-26 16:16 11.42370 -61.36305 16973 ft 334 kts 352°
2026-04-26 16:16 11.44668 -61.36653 16971 ft 334 kts 352°
2026-04-26 16:17 11.46941 -61.36998 16973 ft 335 kts 352°
2026-04-26 16:17 11.49245 -61.37347 16975 ft 335 kts 352°
2026-04-26 16:17 11.51546 -61.37696 16971 ft 335 kts 352°
2026-04-26 16:17 11.53856 -61.38046 16973 ft 335 kts 352°
2026-04-26 16:18 11.56160 -61.38395 16971 ft 335 kts 352°
2026-04-26 16:18 11.60768 -61.39094 16973 ft 335 kts 352°
2026-04-26 16:19 11.65369 -61.39784 16975 ft 332 kts 354°
2026-04-26 16:19 11.67665 -61.39727 16976 ft 330 kts
2026-04-26 16:19 11.71433 -61.39131 16977 ft 330 kts 10°
2026-04-26 16:20 11.74482 -61.38711 16974 ft 331 kts
2026-04-26 16:20 11.79077 -61.38209 16974 ft 332 kts
2026-04-26 16:20 11.81373 -61.37941 16977 ft 332 kts
2026-04-26 16:21 11.83636 -61.37678 16974 ft 332 kts
2026-04-26 16:21 11.85962 -61.37411 16975 ft 332 kts
2026-04-26 16:21 11.88264 -61.37147 16974 ft 332 kts
2026-04-26 16:21 11.90561 -61.36881 16976 ft 332 kts
2026-04-26 16:22 11.92825 -61.36621 16977 ft 332 kts
2026-04-26 16:22 11.95153 -61.36352 16978 ft 332 kts
2026-04-26 16:22 11.97416 -61.36092 16977 ft 332 kts
2026-04-26 16:22 11.99712 -61.35826 16981 ft 332 kts
2026-04-26 16:23 12.02007 -61.35561 16978 ft 332 kts
2026-04-26 16:23 12.04303 -61.35298 16977 ft 332 kts
2026-04-26 16:23 12.06597 -61.35031 16980 ft 332 kts
2026-04-26 16:23 12.08891 -61.34767 16978 ft 332 kts
2026-04-26 16:24 12.11188 -61.34503 16980 ft 332 kts
2026-04-26 16:24 12.13483 -61.34238 16979 ft 332 kts
2026-04-26 16:24 12.15782 -61.33972 16978 ft 332 kts
2026-04-26 16:24 12.18081 -61.33707 16980 ft 332 kts
2026-04-26 16:25 12.20378 -61.33442 16979 ft 332 kts
2026-04-26 16:25 12.22680 -61.33175 16978 ft 332 kts
2026-04-26 16:25 12.24976 -61.32912 16979 ft 333 kts
2026-04-26 16:25 12.27249 -61.32647 16976 ft 333 kts
2026-04-26 16:26 12.29575 -61.32377 16982 ft 333 kts
2026-04-26 16:26 12.31103 -61.32201 16982 ft 333 kts
2026-04-26 16:26 12.34150 -61.31850 16979 ft 333 kts
2026-04-26 16:26 12.36478 -61.31579 16980 ft 333 kts
2026-04-26 16:27 12.38779 -61.31313 16979 ft 333 kts
2026-04-26 16:27 12.41059 -61.31051 16980 ft 333 kts
2026-04-26 16:27 12.43356 -61.30785 16982 ft 333 kts
2026-04-26 16:27 12.45662 -61.30517 16983 ft 333 kts
2026-04-26 16:28 12.47966 -61.30252 16983 ft 333 kts
2026-04-26 16:28 12.50271 -61.29983 16983 ft 333 kts
2026-04-26 16:28 12.52574 -61.29719 16979 ft 333 kts
2026-04-26 16:28 12.54880 -61.29450 16982 ft 333 kts
2026-04-26 16:29 12.57179 -61.29185 16981 ft 333 kts
2026-04-26 16:29 12.59394 -61.28927 16980 ft 333 kts
2026-04-26 16:29 12.61696 -61.28659 16979 ft 333 kts
2026-04-26 16:29 12.63997 -61.28396 16978 ft 333 kts
2026-04-26 16:30 12.66298 -61.28128 16980 ft 333 kts
2026-04-26 16:30 12.68605 -61.27861 16980 ft 333 kts
2026-04-26 16:30 12.70904 -61.27595 16979 ft 333 kts
2026-04-26 16:30 12.73210 -61.27326 16978 ft 333 kts
2026-04-26 16:31 12.75507 -61.27061 16978 ft 333 kts
2026-04-26 16:31 12.77035 -61.26883 16981 ft 333 kts
2026-04-26 16:31 12.77695 -61.26805 16978 ft 333 kts
2026-04-26 16:31 12.80776 -61.26449 16975 ft 333 kts
2026-04-26 16:32 12.82298 -61.26271 16980 ft 333 kts
2026-04-26 16:32 12.84603 -61.26005 16980 ft 333 kts
2026-04-26 16:32 12.86909 -61.25736 16983 ft 333 kts
2026-04-26 16:32 12.89206 -61.25468 16984 ft 333 kts
2026-04-26 16:33 12.92251 -61.25117 16987 ft 333 kts
2026-04-26 16:33 12.93805 -61.24935 16987 ft 333 kts
2026-04-26 16:33 12.96103 -61.24670 16987 ft 332 kts
2026-04-26 16:33 12.98376 -61.24405 16989 ft 333 kts
2026-04-26 16:34 13.00679 -61.24137 16990 ft 333 kts
2026-04-26 16:34 13.02982 -61.23870 16993 ft 333 kts
2026-04-26 16:34 13.05288 -61.23601 16988 ft 333 kts
2026-04-26 16:34 13.07595 -61.23334 16993 ft 333 kts
2026-04-26 16:35 13.09896 -61.23065 16994 ft 333 kts
2026-04-26 16:35 13.12196 -61.22796 16995 ft 333 kts
2026-04-26 16:35 13.14479 -61.22470 16995 ft 330 kts 13°
2026-04-26 16:35 13.16642 -61.21698 17000 ft 329 kts 24°
2026-04-26 16:36 13.18730 -61.20730 16999 ft 330 kts 25°
2026-04-26 16:36 13.20816 -61.19754 16996 ft 330 kts 24°
2026-04-26 16:36 13.22941 -61.18833 16994 ft 331 kts 22°
2026-04-26 16:36 13.25080 -61.17955 16997 ft 332 kts 22°
2026-04-26 16:37 13.27220 -61.17063 16993 ft 332 kts 23°
2026-04-26 16:37 13.29359 -61.16162 16990 ft 332 kts 22°
2026-04-26 16:37 13.31498 -61.15265 16992 ft 332 kts 22°
2026-04-26 16:37 13.33638 -61.14368 16992 ft 332 kts 23°
2026-04-26 16:38 13.35778 -61.13467 16987 ft 332 kts 22°
2026-04-26 16:38 13.37919 -61.12570 16987 ft 332 kts 22°
2026-04-26 16:38 13.40058 -61.11671 16985 ft 332 kts 22°
2026-04-26 16:38 13.42199 -61.10771 16983 ft 332 kts 22°
2026-04-26 16:39 13.44343 -61.09870 16986 ft 332 kts 22°
2026-04-26 16:39 13.46478 -61.08973 16982 ft 332 kts 22°
2026-04-26 16:39 13.48624 -61.08072 16988 ft 332 kts 22°
2026-04-26 16:39 13.50741 -61.07182 16990 ft 334 kts 22°
2026-04-26 16:40 13.52915 -61.06269 16986 ft 334 kts 22°
2026-04-26 16:40 13.55036 -61.05377 16985 ft 334 kts 22°
2026-04-26 16:40 13.57216 -61.04460 16987 ft 334 kts 22°
2026-04-26 16:40 13.59363 -61.03555 16990 ft 333 kts 22°
2026-04-26 16:41 13.61483 -61.02664 16990 ft 334 kts 22°
2026-04-26 16:41 13.63632 -61.01758 16991 ft 334 kts 22°
2026-04-26 16:41 13.65777 -61.00856 16991 ft 334 kts 22°
2026-04-26 16:41 13.67930 -60.99950 16997 ft 333 kts 22°
2026-04-26 16:42 13.70076 -60.99046 16994 ft 333 kts 22°
2026-04-26 16:42 13.72225 -60.98142 16993 ft 332 kts 22°
2026-04-26 16:42 13.74450 -60.97635 16994 ft 329 kts
2026-04-26 16:42 13.76735 -60.97730 16999 ft 329 kts 354°
2026-04-26 16:43 13.79015 -60.97961 16997 ft 330 kts 353°
2026-04-26 16:43 13.81309 -60.98171 16998 ft 331 kts 355°
2026-04-26 16:43 13.83612 -60.98305 16992 ft 333 kts 356°
2026-04-26 16:43 13.85928 -60.98408 16992 ft 333 kts 356°
2026-04-26 16:44 13.88243 -60.98527 16992 ft 334 kts 356°
2026-04-26 16:44 13.90565 -60.98655 16995 ft 334 kts 356°
2026-04-26 16:44 13.92882 -60.98779 16995 ft 333 kts 356°
2026-04-26 16:44 13.95201 -60.98903 16998 ft 334 kts 356°
2026-04-26 16:45 13.97518 -60.99026 16991 ft 333 kts 356°
2026-04-26 16:45 13.99833 -60.99151 16997 ft 333 kts 356°
2026-04-26 16:45 14.02150 -60.99272 16994 ft 333 kts 356°
2026-04-26 16:45 14.04462 -60.99397 16995 ft 333 kts 356°
2026-04-26 16:46 14.06775 -60.99519 16996 ft 333 kts 356°
2026-04-26 16:46 14.09088 -60.99643 16995 ft 333 kts 356°
2026-04-26 16:46 14.11397 -60.99766 16996 ft 332 kts 356°
2026-04-26 16:46 14.13707 -60.99889 16994 ft 332 kts 356°
2026-04-26 16:47 14.16014 -61.00012 16991 ft 332 kts 356°
2026-04-26 16:47 14.18325 -61.00136 16991 ft 332 kts 355°
2026-04-26 16:47 14.20631 -61.00259 16990 ft 332 kts 356°
2026-04-26 16:47 14.22939 -61.00382 16986 ft 332 kts 355°
2026-04-26 16:48 14.25245 -61.00504 16989 ft 332 kts 356°
2026-04-26 16:48 14.27557 -61.00628 16985 ft 332 kts 355°
2026-04-26 16:48 14.29857 -61.00752 16985 ft 332 kts 356°
2026-04-26 16:48 14.32162 -61.00874 16985 ft 332 kts 355°
2026-04-26 16:49 14.34440 -61.00998 16985 ft 332 kts 355°
2026-04-26 16:49 14.36772 -61.01121 16986 ft 332 kts 355°
2026-04-26 16:49 14.39047 -61.01244 16984 ft 332 kts 355°
2026-04-26 16:49 14.41382 -61.01367 16987 ft 332 kts 355°
2026-04-26 16:50 14.43657 -61.01490 16989 ft 332 kts 355°
2026-04-26 16:50 14.45961 -61.01614 16989 ft 332 kts 355°
2026-04-26 16:50 14.48263 -61.01735 16991 ft 332 kts 355°
2026-04-26 16:50 14.50576 -61.01861 16994 ft 332 kts 355°
2026-04-26 16:51 14.52880 -61.01982 16992 ft 333 kts 355°
2026-04-26 16:51 14.55195 -61.02107 16989 ft 333 kts 355°
2026-04-26 16:51 14.57510 -61.02236 16988 ft 333 kts 355°
2026-04-26 16:51 14.59835 -61.02421 16990 ft 330 kts 349°
2026-04-26 16:52 14.62053 -61.02983 16994 ft 327 kts 341°
2026-04-26 16:52 14.63496 -61.03455 16998 ft 327 kts 340°
2026-04-26 16:52 14.66374 -61.04384 16984 ft 328 kts 341°
2026-04-26 16:52 14.68583 -61.05020 16991 ft 329 kts 343°
2026-04-26 16:53 14.70799 -61.05630 16986 ft 329 kts 343°
2026-04-26 16:53 14.73005 -61.06260 17001 ft 329 kts 342°
2026-04-26 16:53 14.75190 -61.06938 16989 ft 328 kts 341°
2026-04-26 16:53 14.77396 -61.07451 16994 ft 326 kts 355°
2026-04-26 16:54 14.79656 -61.07402 16996 ft 318 kts
2026-04-26 16:54 14.81739 -61.07351 16688 ft 282 kts 358°
2026-04-26 16:54 14.83611 -61.07429 16240 ft 258 kts 354°
2026-04-26 16:54 14.85340 -61.07572 15740 ft 243 kts 353°
2026-04-26 16:55 14.86997 -61.07714 15240 ft 234 kts 353°
2026-04-26 16:55 14.88594 -61.07845 14752 ft 227 kts 353°
2026-04-26 16:55 14.90153 -61.07958 14272 ft 222 kts 354°
2026-04-26 16:55 14.91679 -61.08063 13786 ft 218 kts 354°
2026-04-26 16:56 14.94715 -61.08263 12564 ft 218 kts 354°
2026-04-26 16:56 14.96226 -61.08364 11978 ft 217 kts 354°
2026-04-26 16:56 14.97734 -61.08467 11401 ft 216 kts 354°
2026-04-26 16:57 14.99230 -61.08568 10838 ft 215 kts 354°
2026-04-26 16:57 15.00724 -61.08669 10280 ft 214 kts 354°
2026-04-26 16:57 15.03566 -61.08860 9677 ft 194 kts 355°
2026-04-26 16:58 15.04880 -61.08948 9579 ft 183 kts 355°
2026-04-26 16:58 15.05718 -61.09004 9549 ft 175 kts 355°
2026-04-26 16:58 15.06091 -61.09029 9536 ft 171 kts 355°
2026-04-26 16:59 15.07254 -61.09106 9430 ft 164 kts 354°
2026-04-26 16:59 15.09898 -61.09296 8684 ft 218 kts 355°
2026-04-26 17:00 15.12949 -61.09505 7573 ft 220 kts 356°
2026-04-26 17:00 15.15992 -61.09706 6617 ft 214 kts 356°
2026-04-26 17:00 15.17461 -61.09801 6205 ft 210 kts 356°
2026-04-26 17:01 15.18904 -61.09900 5785 ft 206 kts 356°
2026-04-26 17:01 15.20329 -61.09994 5374 ft 204 kts 357°
2026-04-26 17:01 15.21737 -61.10093 4955 ft 202 kts 358°
2026-04-26 17:01 15.23132 -61.10190 4544 ft 200 kts 357°
2026-04-26 17:02 15.24503 -61.10286 4138 ft 200 kts 358°
2026-04-26 17:02 15.25903 -61.10388 3720 ft 199 kts 358°
2026-04-26 17:02 15.27255 -61.10484 3350 ft 196 kts 358°
2026-04-26 17:02 15.28583 -61.10577 3168 ft 185 kts 359°
2026-04-26 17:03 15.29855 -61.10662 3076 ft 185 kts 359°
2026-04-26 17:03 15.31151 -61.10748 3045 ft 187 kts 359°
2026-04-26 17:03 15.32452 -61.10837 3016 ft 188 kts 358°
2026-04-26 17:03 15.33786 -61.10921 2858 ft 196 kts 359°
2026-04-26 17:04 15.35167 -61.11015 2731 ft 201 kts 358°
2026-04-26 17:04 15.36561 -61.11102 2677 ft 200 kts 359°
2026-04-26 17:04 15.37941 -61.11186 2620 ft 198 kts 358°
2026-04-26 17:04 15.39309 -61.11281 2524 ft 199 kts 359°
2026-04-26 17:05 15.40710 -61.11369 2362 ft 203 kts 359°
2026-04-26 17:05 15.42138 -61.11461 2208 ft 207 kts 359°
2026-04-26 17:05 15.43579 -61.11559 2045 ft 209 kts 359°
2026-04-26 17:05 15.45016 -61.11658 1955 ft 206 kts 358°
2026-04-26 17:06 15.46435 -61.11754 1913 ft 202 kts 358°
2026-04-26 17:06 15.47817 -61.11848 1887 ft 197 kts 359°
2026-04-26 17:06 15.49167 -61.11950 1892 ft 193 kts 358°
2026-04-26 17:06 15.50501 -61.12047 1894 ft 191 kts 358°
2026-04-26 17:07 15.51783 -61.12135 1884 ft 189 kts 358°
2026-04-26 17:07 15.53123 -61.12228 1899 ft 188 kts 359°
2026-04-26 17:07 15.54430 -61.12318 1881 ft 188 kts 358°
2026-04-26 17:07 15.55730 -61.12406 1856 ft 188 kts 358°
2026-04-26 17:08 15.57050 -61.12496 1749 ft 191 kts 358°
2026-04-26 17:08 15.58348 -61.12616 1716 ft 177 kts 348°
2026-04-26 17:08 15.59264 -61.13315 1701 ft 160 kts 295°
2026-04-26 17:08 15.59461 -61.14365 1696 ft 141 kts 269°
2026-04-26 17:09 15.59440 -61.15340 1687 ft 137 kts 261°
2026-04-26 17:09 15.59366 -61.15999 1676 ft 136 kts 256°
2026-04-26 17:09 15.59120 -61.17275 1707 ft 140 kts 251°
2026-04-26 17:09 15.58846 -61.18274 1716 ft 148 kts 248°
2026-04-26 17:10 15.58521 -61.19303 1702 ft 153 kts 246°
2026-04-26 17:10 15.58154 -61.20359 1723 ft 157 kts 246°
2026-04-26 17:10 15.57765 -61.21441 1603 ft 165 kts 246°
2026-04-26 17:10 15.57305 -61.22514 1490 ft 157 kts 228°
2026-04-26 17:11 15.56542 -61.23089 1557 ft 134 kts 205°
2026-04-26 17:11 15.55781 -61.23612 1663 ft 132 kts 237°
2026-04-26 17:11 15.55577 -61.24532 1472 ft 134 kts 279°
2026-04-26 17:11 15.55758 -61.25376 1303 ft 111 kts 288°
2026-04-26 17:12 15.55773 -61.26931 738 ft 112 kts 259°
2026-04-26 17:12 15.55537 -61.27704 405 ft 110 kts 251°
2026-04-26 17:13 15.55010 -61.29160 100 ft 105 kts 249°
2026-04-26 17:13 15.54769 -61.29826 40 ft 70 kts 250°
2026-04-26 17:13 15.54641 -61.29945 46 ft 6 kts 203°
2026-04-26 17:14 15.54618 -61.29961 49 ft 2 kts 221°
2026-04-26 17:14 15.54603 -61.29987 50 ft 1 kts 249°
2026-04-26 17:14 15.54589 -61.30026 48 ft 0 kts 249°
2026-04-26 17:39 15.54589 -61.30025 51 ft 0 kts 249°
2026-04-26 17:44 15.54590 -61.30025 51 ft 0 kts 249°